| time (UTC) | temp C | wind direction | speed KPH | gust KPH | rain 1hr cm | rain 24hr cm | rain mn cm | humidity % | barometer mb |
| 20260906024810 | 17 | 344 | 4.8 | 9.7 | 0.00 | 0.00 | 0.00 | 87 | 1021.5 |
| 20260906023811 | 17 | 7 | 4.8 | 9.7 | 0.00 | 0.00 | 0.00 | 86 | 1021.6 |
| 20260906023248 | 17 | 335 | 4.8 | 9.7 | 0.00 | 0.00 | 0.00 | 86 | 1021.7 |
| 20260906021810 | 18 | 348 | 6.4 | 9.7 | 0.00 | 0.00 | 0.00 | 85 | 1021.5 |
| 20260906020811 | 18 | 344 | 6.4 | 9.7 | 0.00 | 0.00 | 0.00 | 84 | 1022.0 |
| 20260906020250 | 18 | 346 | 3.2 | 6.4 | 0.00 | 0.00 | 0.00 | 84 | 1021.9 |
| 20260906014810 | 18 | 343 | 3.2 | 6.4 | 0.00 | 0.00 | 0.00 | 85 | 1022.0 |
| 20260906013809 | 18 | 343 | 4.8 | 6.4 | 0.00 | 0.00 | 0.00 | 85 | 1022.0 |
| 20260906012810 | 18 | 349 | 3.2 | 6.4 | 0.00 | 0.00 | 0.00 | 85 | 1022.1 |
| 20260906011810 | 18 | 345 | 4.8 | 4.8 | 0.00 | 0.00 | 0.00 | 85 | 1022.1 |
| 20260906010810 | 18 | 348 | 4.8 | 6.4 | 0.00 | 0.00 | 0.00 | 84 | 1022.2 |
| 20260906005810 | 18 | 344 | 4.8 | 6.4 | 0.00 | 0.00 | 0.00 | 85 | 1022.3 |
| 20260906005255 | 18 | 345 | 3.2 | 6.4 | 0.00 | 0.00 | 0.00 | 86 | 1022.2 |
| 20260906003810 | 18 | 339 | 3.2 | 4.8 | 0.00 | 0.00 | 0.00 | 85 | 1022.4 |
| 20260906002810 | 18 | 341 | 3.2 | 6.4 | 0.00 | 0.00 | 0.00 | 85 | 1022.3 |
| 20260906001810 | 18 | 332 | 4.8 | 9.7 | 0.00 | 0.00 | 0.00 | 85 | 1022.3 |
| 20260906000810 | 18 | 323 | 4.8 | 9.7 | 0.00 | 0.00 | 0.00 | 84 | 1022.4 |
| 20260905235810 | 18 | 340 | 6.4 | 9.7 | 0.00 | 0.00 | 0.00 | 85 | 1022.5 |
| 20260905234810 | 18 | 346 | 4.8 | 6.4 | 0.00 | 0.00 | 0.00 | 86 | 1022.5 |
| 20260905234252 | 18 | 28 | 3.2 | 6.4 | 0.00 | 0.00 | 0.00 | 86 | 1022.4 |
| 20260905232810 | 18 | 335 | 4.8 | 6.4 | 0.00 | 0.00 | 0.00 | 85 | 1022.5 |
| 20260905232253 | 18 | 355 | 4.8 | 9.7 | 0.00 | 0.00 | 0.00 | 84 | 1022.5 |
| 20260905230810 | 18 | 336 | 6.4 | 9.7 | 0.00 | 0.00 | 0.00 | 84 | 1022.6 |
| 20260905230243 | 18 | 342 | 3.2 | 9.7 | 0.00 | 0.00 | 0.00 | 85 | 1022.5 |
| 20260905224810 | 18 | 335 | 3.2 | 6.4 | 0.00 | 0.00 | 0.00 | 84 | 1022.5 |
| 20260905223810 | 19 | 342 | 3.2 | 6.4 | 0.00 | 0.00 | 0.00 | 84 | 1022.6 |
| 20260905222810 | 18 | 349 | 3.2 | 6.4 | 0.00 | 0.00 | 0.00 | 83 | 1022.6 |
| 20260905222732 | 19 | 347 | 4.8 | 6.4 | 0.00 | 0.00 | 0.00 | 84 | 1022.3 |
| 20260905220810 | 19 | 359 | 4.8 | 9.7 | 0.00 | 0.00 | 0.00 | 84 | 1022.2 |
| 20260905215811 | 19 | 340 | 3.2 | 4.8 | 0.00 | 0.00 | 0.00 | 85 | 1022.5 |
| 20260905214810 | 19 | 351 | 3.2 | 3.2 | 0.00 | 0.00 | 0.00 | 83 | 1022.3 |
| 20260905213810 | 19 | 347 | 1.6 | 4.8 | 0.00 | 0.00 | 0.00 | 82 | 1022.3 |
| 20260905212810 | 19 | 346 | 3.2 | 4.8 | 0.00 | 0.00 | 0.00 | 81 | 1022.3 |
| 20260905211810 | 19 | 335 | 1.6 | 4.8 | 0.00 | 0.00 | 0.00 | 82 | 1022.2 |
| 20260905210810 | 19 | 349 | 3.2 | 4.8 | 0.00 | 0.00 | 0.00 | 81 | 1021.9 |
| 20260905210252 | 19 | 344 | 3.2 | 4.8 | 0.00 | 0.00 | 0.00 | 83 | 1021.5 |
| 20260905204810 | 20 | 0 | 0.0 | 3.2 | 0.00 | 0.00 | 0.00 | 86 | 1021.5 |
| 20260905204248 | 20 | 93 | 1.6 | 1.6 | 0.00 | 0.00 | 0.00 | 88 | 1021.3 |
| 20260905202810 | 20 | 99 | 0.0 | 3.2 | 0.00 | 0.00 | 0.00 | 88 | 1021.3 |
| 20260905202249 | 20 | 115 | 0.0 | 1.6 | 0.00 | 0.00 | 0.00 | 88 | 1021.2 |
| 20260905200810 | 20 | 111 | 0.0 | 3.2 | 0.00 | 0.00 | 0.00 | 88 | 1020.8 |
| 20260905195811 | 20 | 133 | 3.2 | 4.8 | 0.00 | 0.00 | 0.00 | 89 | 1020.8 |
| 20260905194811 | 20 | 154 | 1.6 | 4.8 | 0.00 | 0.00 | 0.00 | 89 | 1020.8 |
| 20260905193810 | 20 | 155 | 3.2 | 4.8 | 0.00 | 0.00 | 0.00 | 88 | 1020.6 |
| 20260905192810 | 20 | 149 | 1.6 | 6.4 | 0.00 | 0.00 | 0.00 | 88 | 1020.4 |
| 20260905192246 | 20 | 134 | 1.6 | 4.8 | 0.00 | 0.00 | 0.00 | 88 | 1020.6 |
| 20260905190810 | 20 | 160 | 3.2 | 6.4 | 0.00 | 0.00 | 0.00 | 88 | 1020.6 |
| 20260905185811 | 20 | 128 | 1.6 | 6.4 | 0.00 | 0.00 | 0.00 | 88 | 1020.5 |
| 20260905184810 | 20 | 111 | 3.2 | 6.4 | 0.00 | 0.00 | 0.00 | 88 | 1020.4 |
| 20260905183810 | 20 | 160 | 4.8 | 6.4 | 0.00 | 0.00 | 0.00 | 88 | 1020.4 |
| 20260905182811 | 20 | 135 | 3.2 | 4.8 | 0.00 | 0.00 | 0.00 | 88 | 1020.7 |
| 20260905181810 | 20 | 160 | 3.2 | 6.4 | 0.00 | 0.00 | 0.00 | 87 | 1020.7 |
| 20260905180810 | 20 | 147 | 1.6 | 4.8 | 0.00 | 0.00 | 0.00 | 87 | 1020.8 |
| 20260905175810 | 20 | 198 | 3.2 | 6.4 | 0.00 | 0.00 | 0.00 | 87 | 1020.7 |
| 20260905175720 | 20 | 99 | 1.6 | 6.4 | 0.00 | 0.00 | 0.00 | 87 | 1020.7 |
| 20260905173810 | 20 | 102 | 3.2 | 6.4 | 0.00 | 0.00 | 0.00 | 87 | 1020.7 |
| 20260905172811 | 21 | 121 | 3.2 | 9.7 | 0.00 | 0.00 | 0.00 | 87 | 1020.7 |
| 20260905171810 | 21 | 43 | 0.0 | 9.7 | 0.00 | 0.00 | 0.00 | 87 | 1020.7 |
| 20260905170810 | 21 | 140 | 4.8 | 9.7 | 0.00 | 0.00 | 0.00 | 85 | 1020.6 |
| 20260905170247 | 21 | 112 | 6.4 | 9.7 | 0.00 | 0.00 | 0.00 | 85 | 1020.5 |
| 20260905165244 | 21 | 82 | 0.0 | 6.4 | 0.00 | 0.00 | 0.00 | 84 | 1020.5 |
| 20260905163810 | 21 | 326 | 1.6 | 6.4 | 0.00 | 0.00 | 0.00 | 84 | 1020.5 |
| 20260905162810 | 21 | 153 | 1.6 | 11.3 | 0.00 | 0.00 | 0.00 | 85 | 1020.6 |
| 20260905161810 | 21 | 107 | 8.0 | 9.7 | 0.00 | 0.00 | 0.00 | 84 | 1020.3 |
| 20260905160810 | 21 | 101 | 4.8 | 11.3 | 0.00 | 0.00 | 0.00 | 83 | 1020.3 |
| 20260905160300 | 21 | 112 | 3.2 | 11.3 | 0.00 | 0.00 | 0.00 | 83 | 1020.5 |
| 20260905154810 | 21 | 82 | 3.2 | 9.7 | 0.00 | 0.00 | 0.00 | 83 | 1020.5 |
| 20260905153810 | 21 | 167 | 6.4 | 11.3 | 0.00 | 0.00 | 0.00 | 82 | 1020.6 |
| 20260905152810 | 21 | 136 | 3.2 | 11.3 | 0.00 | 0.00 | 0.00 | 82 | 1021.0 |
| 20260905151810 | 21 | 129 | 4.8 | 12.9 | 0.00 | 0.00 | 0.00 | 82 | 1020.7 |
| 20260905150810 | 22 | 147 | 6.4 | 14.5 | 0.00 | 0.00 | 0.00 | 81 | 1020.6 |
| 20260905145810 | 22 | 164 | 4.8 | 14.5 | 0.00 | 0.00 | 0.00 | 80 | 1020.7 |
| 20260905144811 | 22 | 213 | 3.2 | 12.9 | 0.00 | 0.00 | 0.00 | 79 | 1020.8 |
| 20260905143810 | 22 | 94 | 4.8 | 12.9 | 0.00 | 0.00 | 0.00 | 78 | 1021.0 |
| 20260905142758 | 22 | 98 | 8.0 | 12.9 | 0.00 | 0.00 | 0.00 | 77 | 1020.8 |
| 20260905141758 | 23 | 162 | 4.8 | 12.9 | 0.00 | 0.00 | 0.00 | 77 | 1020.8 |
| 20260905140757 | 23 | 138 | 9.7 | 14.5 | 0.00 | 0.00 | 0.00 | 75 | 1021.0 |
| 20260905135758 | 23 | 103 | 4.8 | 11.3 | 0.00 | 0.00 | 0.00 | 77 | 1021.0 |
| 20260905135725 | 23 | 161 | 6.4 | 17.7 | 0.00 | 0.00 | 0.00 | 77 | 1021.0 |
| 20260905133758 | 23 | 170 | 8.0 | 14.5 | 0.00 | 0.00 | 0.00 | 76 | 1021.0 |
| 20260905132758 | 22 | 170 | 6.4 | 12.9 | 0.00 | 0.00 | 0.00 | 78 | 1020.9 |
| 20260905131758 | 22 | 186 | 6.4 | 16.1 | 0.00 | 0.00 | 0.00 | 79 | 1021.2 |
| 20260905130758 | 22 | 101 | 8.0 | 11.3 | 0.00 | 0.00 | 0.00 | 80 | 1021.1 |
| 20260905125758 | 22 | 123 | 4.8 | 14.5 | 0.00 | 0.00 | 0.00 | 80 | 1021.3 |
| 20260905124757 | 22 | 113 | 6.4 | 12.9 | 0.00 | 0.00 | 0.00 | 80 | 1021.2 |
| 20260905123758 | 22 | 61 | 6.4 | 16.1 | 0.00 | 0.00 | 0.00 | 80 | 1021.2 |
| 20260905122758 | 22 | 75 | 3.2 | 12.9 | 0.00 | 0.00 | 0.00 | 79 | 1021.2 |
| 20260905121759 | 22 | 226 | 3.2 | 14.5 | 0.00 | 0.00 | 0.00 | 79 | 1021.5 |
| 20260905120758 | 22 | 161 | 9.7 | 16.1 | 0.00 | 0.00 | 0.00 | 80 | 1021.5 |
| 20260905115758 | 22 | 99 | 8.0 | 14.5 | 0.00 | 0.00 | 0.00 | 78 | 1021.3 |
| 20260905115238 | 23 | 140 | 8.0 | 16.1 | 0.00 | 0.00 | 0.00 | 77 | 1021.2 |
| 20260905113758 | 22 | 123 | 8.0 | 16.1 | 0.00 | 0.00 | 0.00 | 77 | 1021.1 |
| 20260905112758 | 22 | 146 | 9.7 | 14.5 | 0.00 | 0.00 | 0.00 | 78 | 1021.5 |
| 20260905111758 | 22 | 153 | 4.8 | 11.3 | 0.00 | 0.00 | 0.00 | 80 | 1021.5 |
| 20260905110758 | 21 | 189 | 4.8 | 11.3 | 0.00 | 0.00 | 0.00 | 79 | 1021.7 |
| 20260905110235 | 21 | 141 | 6.4 | 14.5 | 0.00 | 0.00 | 0.00 | 79 | 1021.6 |
| 20260905105231 | 22 | 127 | 9.7 | 12.9 | 0.00 | 0.00 | 0.00 | 78 | 1021.6 |
| 20260905103758 | 22 | 129 | 3.2 | 14.5 | 0.00 | 0.00 | 0.00 | 77 | 1021.6 |
| 20260905102758 | 23 | 172 | 4.8 | 11.3 | 0.00 | 0.00 | 0.00 | 73 | 1021.2 |
| 20260905101758 | 22 | 171 | 6.4 | 14.5 | 0.00 | 0.00 | 0.00 | 72 | 1021.2 |
| 20260905100759 | 22 | 344 | 6.4 | 11.3 | 0.00 | 0.00 | 0.00 | 71 | 1021.0 |
| 20260905095758 | 22 | 54 | 3.2 | 12.9 | 0.00 | 0.00 | 0.00 | 72 | 1021.1 |
| 20260905095235 | 21 | 132 | 1.6 | 9.7 | 0.00 | 0.00 | 0.00 | 74 | 1020.8 |
| 20260905093758 | 22 | 131 | 8.0 | 9.7 | 0.00 | 0.00 | 0.00 | 72 | 1020.6 |
| 20260905092758 | 22 | 38 | 3.2 | 6.4 | 0.00 | 0.00 | 0.00 | 74 | 1020.8 |
| 20260905091759 | 21 | 198 | 1.6 | 6.4 | 0.00 | 0.00 | 0.00 | 75 | 1020.8 |
| 20260905091239 | 21 | 157 | 1.6 | 6.4 | 0.00 | 0.00 | 0.00 | 75 | 1020.7 |
| 20260905085803 | 20 | 21 | 0.0 | 6.4 | 0.00 | 0.00 | 0.00 | 78 | 1021.0 |
| 20260905085726 | 22 | 50 | 3.2 | 4.8 | 0.00 | 0.00 | 0.00 | 75 | 1020.9 |
| 20260905083758 | 21 | 313 | 0.0 | 3.2 | 0.00 | 0.00 | 0.00 | 75 | 1020.9 |
| 20260905082758 | 19 | 14 | 3.2 | 3.2 | 0.00 | 0.00 | 0.00 | 79 | 1021.0 |
| 20260905081758 | 18 | 8 | 1.6 | 4.8 | 0.00 | 0.00 | 0.00 | 81 | 1020.7 |
| 20260905080758 | 18 | 342 | 3.2 | 4.8 | 0.00 | 0.00 | 0.00 | 77 | 1020.8 |
| 20260905075758 | 18 | 343 | 3.2 | 9.7 | 0.00 | 0.00 | 0.00 | 79 | 1020.6 |
| 20260905074758 | 18 | 343 | 4.8 | 9.7 | 0.00 | 0.00 | 0.00 | 81 | 1020.4 |
| 20260905073758 | 18 | 2 | 6.4 | 9.7 | 0.00 | 0.00 | 0.00 | 83 | 1020.5 |
| 20260905072758 | 18 | 342 | 6.4 | 9.7 | 0.00 | 0.00 | 0.00 | 85 | 1020.2 |
| 20260905071758 | 18 | 342 | 4.8 | 9.7 | 0.00 | 0.00 | 0.00 | 85 | 1020.1 |
| 20260905070759 | 18 | 350 | 4.8 | 9.7 | 0.00 | 0.00 | 0.00 | 85 | 1020.2 |
| 20260905065758 | 18 | 337 | 4.8 | 6.4 | 0.00 | 0.00 | 0.00 | 87 | 1020.1 |
| 20260905064759 | 18 | 342 | 4.8 | 4.8 | 0.00 | 0.00 | 0.00 | 87 | 1020.2 |
| 20260905063758 | 17 | 8 | 1.6 | 4.8 | 0.00 | 0.00 | 0.00 | 87 | 1019.9 |
| 20260905063720 | 17 | 356 | 3.2 | 6.4 | 0.00 | 0.00 | 0.00 | 87 | 1019.9 |
| 20260905061758 | 17 | 355 | 3.2 | 6.4 | 0.00 | 0.00 | 0.00 | 86 | 1019.7 |
| 20260905060758 | 17 | 352 | 3.2 | 6.4 | 0.00 | 0.00 | 0.00 | 85 | 1019.7 |
| 20260905055758 | 17 | 342 | 4.8 | 9.7 | 0.00 | 0.00 | 0.00 | 85 | 1019.2 |
| 20260905055246 | 17 | 339 | 4.8 | 9.7 | 0.00 | 0.00 | 0.00 | 85 | 1019.4 |
| 20260905053758 | 17 | 337 | 4.8 | 6.4 | 0.00 | 0.00 | 0.00 | 86 | 1019.2 |
| 20260905052758 | 18 | 343 | 3.2 | 6.4 | 0.00 | 0.00 | 0.00 | 87 | 1019.4 |
| 20260905051757 | 18 | 341 | 4.8 | 4.8 | 0.00 | 0.00 | 0.00 | 86 | 1019.5 |
| 20260905050758 | 17 | 349 | 3.2 | 6.4 | 0.00 | 0.00 | 0.00 | 85 | 1019.6 |
| 20260905045758 | 17 | 336 | 3.2 | 4.8 | 0.00 | 0.00 | 0.00 | 85 | 1019.4 |
| 20260905045248 | 17 | 345 | 3.2 | 4.8 | 0.00 | 0.00 | 0.00 | 82 | 1019.4 |
| 20260905043758 | 17 | 342 | 3.2 | 6.4 | 0.00 | 0.00 | 0.00 | 83 | 1019.4 |
| 20260905043729 | 16 | 355 | 3.2 | 6.4 | 0.00 | 0.00 | 0.00 | 82 | 1019.4 |
| 20260905041758 | 16 | 343 | 4.8 | 6.4 | 0.00 | 0.00 | 0.00 | 79 | 1019.4 |
| 20260905040758 | 17 | 340 | 3.2 | 9.7 | 0.00 | 0.00 | 0.00 | 78 | 1019.4 |
| 20260905035758 | 17 | 339 | 8.0 | 9.7 | 0.00 | 0.00 | 0.00 | 83 | 1019.4 |
| 20260905034758 | 18 | 328 | 4.8 | 6.4 | 0.00 | 0.00 | 0.00 | 86 | 1019.4 |
| 20260905033758 | 18 | 345 | 4.8 | 9.7 | 0.00 | 0.00 | 0.00 | 85 | 1019.5 |
| 20260905033239 | 18 | 330 | 4.8 | 11.3 | 0.00 | 0.00 | 0.00 | 84 | 1019.7 |
| 20260905032239 | 18 | 341 | 6.4 | 11.3 | 0.00 | 0.00 | 0.00 | 84 | 1019.9 |
| 20260905030758 | 18 | 330 | 4.8 | 9.7 | 0.00 | 0.00 | 0.00 | 85 | 1020.0 |
| 20260905025758 | 18 | 327 | 4.8 | 9.7 | 0.00 | 0.00 | 0.00 | 85 | 1019.9 |